| time (UTC) | temp F | wind direction | speed MPH | gust MPH | rain 1hr in | rain 24hr in | rain mn in | humidity % | barometer mb |
| 20260506150210 | 52 | 178 | 39.0 | 0.0 | 0.00 | 0.00 | 0.00 | 86 | 1005.1 |
| 20260506143210 | 58 | 190 | 25.0 | 0.0 | 0.00 | 0.00 | 0.00 | 73 | 1004.4 |
| 20260506140210 | 60 | 227 | 15.0 | 0.0 | 0.00 | 0.00 | 0.00 | 66 | 1004.0 |
| 20260506133211 | 60 | 198 | 7.0 | 0.0 | 0.00 | 0.00 | 0.00 | 68 | 1004.3 |
| 20260506130211 | 59 | 271 | 6.0 | 0.0 | 0.00 | 0.00 | 0.00 | 67 | 1004.6 |
| 20260506123210 | 61 | 258 | 6.0 | 0.0 | 0.00 | 0.00 | 0.00 | 66 | 1004.4 |
| 20260506120210 | 60 | 206 | 5.0 | 0.0 | 0.00 | 0.00 | 0.00 | 67 | 1004.3 |
| 20260506113217 | 60 | 213 | 4.0 | 0.0 | 0.00 | 0.00 | 0.00 | 69 | 1004.4 |
| 20260506110210 | 59 | 328 | 4.0 | 0.0 | 0.00 | 0.00 | 0.00 | 69 | 1004.6 |
| 20260506100213 | 56 | 306 | 5.0 | 0.0 | 0.00 | 0.00 | 0.00 | 77 | 1004.6 |
| 20260506093211 | 56 | 289 | 0.0 | 0.0 | 0.00 | 0.00 | 0.00 | 75 | 1005.1 |
| 20260506090211 | 56 | 264 | 4.0 | 0.0 | 0.00 | 0.00 | 0.00 | 75 | 1005.1 |
| 20260506083211 | 55 | 254 | 3.0 | 0.0 | 0.00 | 0.00 | 0.00 | 79 | 1005.0 |
| 20260506080212 | 54 | 231 | 6.0 | 0.0 | 0.00 | 0.00 | 0.00 | 81 | 1004.9 |
| 20260506073211 | 54 | 146 | 2.0 | 0.0 | 0.00 | 0.00 | 0.00 | 83 | 1005.2 |
| 20260506070212 | 53 | 80 | 8.0 | 0.0 | 0.00 | 0.00 | 0.00 | 86 | 1005.4 |
| 20260506060210 | 50 | 138 | 1.0 | 0.0 | 0.00 | 0.00 | 0.00 | 90 | 1005.1 |
| 20260506050211 | 48 | 138 | 0.0 | 0.0 | 0.00 | 0.00 | 0.00 | 90 | 1005.4 |
| 20260506043211 | 48 | 138 | 4.0 | 0.0 | 0.00 | 0.00 | 0.00 | 90 | 1005.6 |
| 20260506040211 | 49 | 138 | 0.0 | 0.0 | 0.00 | 0.00 | 0.00 | 88 | 1005.8 |
| 20260506033211 | 49 | 138 | 2.0 | 0.0 | 0.00 | 0.00 | 0.00 | 88 | 1006.2 |
| 20260506030212 | 50 | 138 | 0.0 | 0.0 | 0.00 | 0.00 | 0.00 | 87 | 1006.4 |
| 20260506023211 | 51 | 174 | 2.0 | 0.0 | 0.00 | 0.00 | 0.00 | 86 | 1006.5 |
| 20260506020212 | 51 | 160 | 7.0 | 0.0 | 0.00 | 0.00 | 0.00 | 86 | 1006.6 |
| 20260506013211 | 51 | 163 | 5.0 | 0.0 | 0.00 | 0.00 | 0.00 | 87 | 1006.8 |
| 20260506010212 | 51 | 156 | 8.0 | 0.0 | 0.00 | 0.00 | 0.00 | 87 | 1007.3 |
| 20260506003209 | 52 | 156 | 6.0 | 0.0 | 0.00 | 0.00 | 0.00 | 85 | 1007.1 |
| 20260506000211 | 52 | 196 | 5.0 | 0.0 | 0.00 | 0.00 | 0.00 | 85 | 1007.2 |
| 20260505233209 | 52 | 188 | 8.0 | 0.0 | 0.00 | 0.00 | 0.00 | 85 | 1007.5 |
| 20260505230209 | 51 | 159 | 9.0 | 0.0 | 0.00 | 0.00 | 0.00 | 85 | 1007.6 |
| 20260505223210 | 52 | 208 | 8.0 | 0.0 | 0.00 | 0.00 | 0.00 | 83 | 1007.7 |
| 20260505220209 | 53 | 180 | 10.0 | 0.0 | 0.00 | 0.00 | 0.00 | 82 | 1007.7 |
| 20260505213211 | 53 | 194 | 12.0 | 0.0 | 0.00 | 0.00 | 0.00 | 80 | 1007.8 |
| 20260505210215 | 54 | 202 | 18.0 | 0.0 | 0.00 | 0.00 | 0.00 | 79 | 1007.9 |
| 20260505203209 | 55 | 169 | 20.0 | 0.0 | 0.00 | 0.00 | 0.00 | 78 | 1007.7 |
| 20260505200210 | 55 | 176 | 16.0 | 0.0 | 0.00 | 0.00 | 0.00 | 76 | 1007.8 |
| 20260505193209 | 56 | 191 | 18.0 | 0.0 | 0.00 | 0.00 | 0.00 | 76 | 1007.7 |
| 20260505190215 | 56 | 192 | 11.0 | 0.0 | 0.00 | 0.00 | 0.00 | 77 | 1007.3 |
| 20260505183212 | 59 | 219 | 15.0 | 0.0 | 0.00 | 0.00 | 0.00 | 73 | 1006.6 |
| 20260505180211 | 60 | 229 | 14.0 | 0.0 | 0.00 | 0.00 | 0.00 | 67 | 1006.4 |
| 20260505173210 | 61 | 171 | 18.0 | 0.0 | 0.00 | 0.00 | 0.00 | 60 | 1006.1 |
| 20260505170210 | 61 | 217 | 9.0 | 0.0 | 0.00 | 0.00 | 0.00 | 62 | 1005.9 |
| 20260505163211 | 62 | 241 | 10.0 | 0.0 | 0.00 | 0.00 | 0.00 | 59 | 1005.8 |
| 20260505153210 | 61 | 199 | 4.0 | 0.0 | 0.00 | 0.00 | 0.00 | 68 | 1005.9 |